User: anonymous
Location: Writing-on-Stone Provincial Park
(49.0825°N, 111.6163°W)
Time: 12:13:00
(UTC-06:00)
Language:

BREEZE-M DEB (TANK) - Orbit

View from above orbital plane
View from above orbital plane
View from above satellite
View from above satellite

Ground track
Ground track

The orbit data is extracted from the following two-line orbital elements,

1 29649U 06056B   14264.12607630  .00004471  00000-0  58566-3 0   225
2 29649 049.4815 241.5914 5425777 260.0915 249.6019 04.94756607137997
Epoch (UTC): 21 September 2014 03:01:32
Eccentricity: 0.5425777
inclination: 49.4815°
perigee height: 276 km
apogee height: 16063 km
right ascension of ascending node: 241.5914°
argument of perigee: 260.0915°
revolutions per day: 4.94756607
mean anomaly at epoch: 249.6019°
orbit number at epoch: 13799

The dashed part of the orbit path shows where the satellite is in the earth's shadow,  

DLR